GFSFLT2_700_spd_132.txt.gz
Wind_Speed
5 9 12 15 17 15 7 9 25 5 12 8 11 8 13 15 35 32 34 27 36 28 23 22 22 22 21 17 13 15 17 17
2 8 13 16 12 12 8 5 18 10 6 3 15 22 14 8 25 29 39 28 27 29 25 25 24 22 22 22 14 13 16 17
6 10 11 6 2 7 10 13 5 1 2 5 4 15 10 9 13 21 26 35 29 27 30 28 25 23 23 21 15 12 13 16
7 8 4 5 5 19 19 4 7 6 7 2 5 5 4 2 7 27 32 44 39 33 31 31 28 25 27 20 18 13 9 10
14 2 7 5 8 8 12 10 2 6 5 5 8 1 1 8 4 11 28 35 43 38 27 31 27 26 30 28 20 16 12 9
17 5 6 7 11 9 13 8 11 13 6 10 12 5 4 4 7 5 18 30 34 32 35 30 32 28 32 26 22 17 13 12
16 8 8 6 11 10 7 13 18 9 11 13 13 12 9 4 7 3 4 15 35 23 21 33 26 29 34 33 30 20 20 16
15 15 15 14 14 12 15 8 11 12 9 11 6 14 13 6 5 8 9 8 5 10 19 23 35 37 37 34 32 31 24 22
17 12 9 11 10 11 11 16 13 11 13 10 9 6 14 8 9 11 12 13 14 10 6 7 25 39 42 39 39 33 27 25
16 16 13 11 12 12 10 6 9 11 9 8 10 12 19 14 10 9 10 15 15 13 12 6 6 10 39 41 37 34 32 26
16 18 17 17 3 2 6 5 10 12 9 7 12 12 19 20 11 14 14 12 11 10 11 5 6 5 6 32 33 27 26 22
13 14 14 11 1 4 7 11 5 6 12 10 13 20 19 10 9 13 14 12 8 6 6 8 4 7 5 2 8 17 17 24
14 15 15 2 2 4 8 4 12 16 11 18 10 11 7 9 7 10 12 13 9 5 6 7 9 12 14 13 12 14 13 10
13 16 16 3 5 6 6 9 11 19 17 24 21 5 3 3 1 1 3 6 5 4 4 4 7 8 9 13 13 13 13 11
14 14 13 19 13 9 9 14 14 10 18 14 17 22 12 17 12 9 7 5 4 3 3 5 6 6 7 7 6 7 9 14
17 18 16 14 17 16 12 16 12 8 10 14 18 17 8 12 13 7 8 8 11 5 2 7 7 7 6 6 7 10 12 14
15 17 20 18 19 19 18 16 11 7 13 16 14 15 14 12 13 12 10 11 11 16 6 9 11 11 10 11 12 14 16 17
20 19 17 16 15 17 16 13 10 8 12 17 17 18 15 11 11 12 11 11 11 15 17 12 12 9 9 11 13 14 16 18
23 24 22 19 22 21 36 16 8 14 19 20 16 17 14 11 12 13 12 12 12 13 13 16 17 8 8 9 10 10 11 13

GFSFLT2_700_spd_135.txt.gz
Wind_Speed
1 9 5 7 13 2 5 1 3 2 5 9 8 12 15 17 19 36 37 38 28 40 31 31 21 15 10 9 13 17 18 18
3 4 7 7 6 5 6 2 3 3 6 7 11 16 11 5 10 20 37 35 28 32 29 33 24 18 14 11 12 16 18 18
9 4 5 6 7 6 5 2 3 2 4 14 9 17 10 6 7 13 35 40 31 35 36 29 28 25 19 15 15 17 17 17
19 2 4 8 4 8 5 4 4 2 10 10 11 4 11 5 11 13 16 35 35 42 38 40 35 29 24 18 17 15 16 18
7 5 16 13 13 2 3 11 10 7 4 11 6 4 6 12 14 9 24 39 39 35 41 40 37 31 26 23 19 16 15 15
17 9 11 13 9 6 11 10 7 10 14 13 12 13 18 5 5 6 13 36 45 38 33 38 34 37 31 27 23 24 15 14
8 17 11 10 5 15 13 7 6 11 18 7 6 8 11 12 10 3 6 16 31 49 47 37 36 40 37 35 27 25 17 16
16 13 13 16 18 13 14 16 10 6 7 9 14 16 5 8 10 8 4 4 15 20 40 37 30 32 34 32 31 32 23 25
12 14 14 7 3 5 7 12 16 5 3 4 6 11 6 7 7 12 13 10 5 6 17 44 34 31 18 20 27 30 21 31
15 14 7 11 10 9 5 5 2 4 5 5 7 8 12 10 10 7 10 13 13 5 7 3 3 3 23 30 29 31 30 20
14 14 15 18 8 9 4 13 11 5 7 4 3 6 14 14 12 10 8 9 15 12 8 10 10 8 8 28 39 36 34 35
10 9 4 2 5 3 3 5 10 10 6 7 7 13 13 12 6 6 7 6 7 11 13 13 14 10 5 6 23 30 35 33
11 10 8 3 3 1 3 0 9 11 11 12 13 12 16 16 4 5 5 8 9 9 12 14 15 18 8 5 1 9 11 9
11 14 9 4 8 4 8 6 8 15 16 18 19 17 11 8 16 7 4 3 5 8 7 8 7 8 8 8 7 7 8 8
15 8 12 11 9 7 12 13 9 16 23 24 17 13 17 9 9 9 5 3 1 5 6 6 7 6 5 5 8 10 12 11
14 16 18 15 11 10 14 18 14 14 19 18 15 19 13 12 12 6 8 10 8 7 6 6 6 8 9 9 9 9 9 10
13 10 12 17 15 14 15 16 17 17 17 22 20 19 10 8 10 9 8 9 8 9 12 8 9 10 11 11 12 11 11 12
12 14 14 11 15 18 21 22 24 27 22 20 15 19 14 11 12 11 9 11 12 12 11 17 14 8 11 16 17 17 17 16
15 17 24 29 23 17 21 23 25 28 34 28 15 12 20 11 14 14 13 13 13 13 13 12 12 13 13 14 17 17 17 17

GFSFLT2_700_spd_138.txt.gz
Wind_Speed
8 9 4 1 4 3 4 3 1 2 5 10 9 12 12 13 21 33 39 33 33 34 31 29 20 12 7 7 7 12 15 18
9 4 3 2 2 3 3 3 2 2 3 6 8 16 20 15 14 31 35 39 37 33 34 33 26 16 14 10 7 8 13 17
10 4 4 2 4 2 1 3 6 1 5 4 1 12 15 15 11 12 21 37 39 36 35 38 28 25 21 14 11 7 12 17
6 4 10 8 7 2 5 6 5 3 4 5 9 11 11 6 10 8 14 28 48 40 34 36 38 30 28 18 15 8 10 15
5 1 6 10 9 6 2 5 8 6 4 4 6 3 5 11 11 11 6 19 31 34 34 35 37 37 33 28 18 14 12 15
11 7 11 14 9 7 10 7 10 14 7 7 5 9 13 14 17 12 10 14 24 40 30 33 36 40 39 39 27 21 17 16
6 8 12 14 13 15 14 12 8 4 14 10 4 8 8 12 8 9 11 17 20 38 37 32 35 40 39 38 37 33 26 19
5 2 7 10 15 19 21 17 15 9 6 5 3 2 6 2 2 2 11 11 12 26 28 28 24 40 44 43 42 39 32 21
12 13 12 5 13 9 11 16 12 2 7 6 3 8 5 4 6 10 16 13 3 2 3 13 35 39 33 32 35 46 39 30
7 11 1 9 14 9 11 8 8 5 7 8 5 1 4 8 12 12 14 16 15 11 3 6 8 25 41 42 37 49 22 26
9 7 10 9 4 7 12 13 10 9 12 8 5 3 8 15 16 16 14 14 14 15 11 7 6 8 7 15 16 33 36 23
8 3 3 5 3 3 4 6 4 4 4 5 1 6 14 19 20 16 14 14 13 15 15 11 11 6 3 3 10 10 23 31
12 8 9 9 10 11 11 7 8 5 5 4 5 12 20 16 11 9 10 11 11 12 11 13 14 13 10 8 3 8 18 18
12 13 12 10 9 10 12 11 10 12 14 13 16 18 22 16 6 11 9 11 11 12 14 13 13 14 13 13 9 3 4 5
5 7 10 14 16 18 18 14 14 16 19 20 19 22 19 18 20 13 14 13 12 11 12 13 12 11 8 11 14 15 11 8
10 7 6 10 13 14 14 13 14 18 20 19 19 15 16 15 15 11 15 14 11 11 11 12 13 11 9 8 10 10 10 10
3 10 9 9 11 12 14 16 18 17 17 12 14 15 14 16 16 19 17 15 15 15 12 12 11 11 10 11 10 10 10 11
10 14 14 16 13 14 16 17 18 17 20 22 23 19 13 16 15 15 14 14 14 13 14 14 12 13 14 14 14 14 14 15
12 14 18 19 21 23 23 20 22 25 24 26 30 29 31 11 16 16 16 14 13 14 16 16 18 19 13 14 18 19 18 18

GFSFLT2_700_spd_141.txt.gz
Wind_Speed
9 12 7 4 4 5 4 3 1 3 8 9 8 11 12 8 13 17 37 34 31 29 27 22 19 15 10 8 6 6 10 14
7 2 9 7 9 3 4 3 3 4 7 7 7 8 9 10 14 17 22 32 32 33 29 25 26 19 15 11 7 6 10 14
3 5 5 2 3 3 4 4 6 2 5 8 6 9 16 11 10 8 21 30 35 39 35 32 26 25 23 18 14 12 9 12
6 6 4 5 6 4 3 5 6 2 7 9 4 8 6 9 11 17 24 24 31 36 38 42 31 26 26 26 22 15 11 12
5 6 4 2 3 5 5 5 8 3 5 3 5 3 6 6 9 10 6 11 24 35 39 40 37 33 30 31 29 23 17 14
13 7 5 6 9 7 8 6 5 10 14 13 6 1 3 3 3 11 9 12 16 20 38 37 37 33 36 30 28 28 25 21
6 5 3 5 5 9 14 14 10 9 7 6 9 7 8 9 4 7 11 10 13 10 27 34 33 44 41 36 36 36 36 29
4 4 4 5 5 10 15 20 17 16 11 7 5 3 3 4 5 7 12 10 12 12 12 19 33 30 36 41 42 44 43 35
7 11 14 12 10 11 11 17 14 17 10 7 5 2 2 4 7 13 14 15 14 8 1 8 26 31 34 37 41 44 44 47
4 3 3 13 14 11 8 10 11 10 7 8 6 3 6 10 10 13 18 15 9 8 3 2 7 19 30 34 38 50 44 43
5 7 7 10 6 5 14 14 14 11 8 9 7 3 8 15 19 16 13 12 11 13 13 10 9 8 8 21 22 34 32 38
8 4 4 4 5 7 5 12 11 10 9 9 6 3 10 18 20 14 15 11 11 15 18 14 9 3 4 5 5 10 15 29
14 10 7 10 8 4 4 6 9 6 4 6 7 10 15 20 19 14 9 11 11 11 16 18 15 12 12 12 11 7 7 8
13 8 6 9 12 10 11 10 7 8 8 9 13 16 18 17 17 15 15 12 13 14 14 13 14 14 15 16 16 9 6 4
13 11 6 6 7 9 9 7 5 7 9 12 13 11 15 13 12 15 18 13 10 12 16 16 16 13 12 11 16 15 7 4
13 11 10 8 7 8 8 10 14 15 14 17 17 20 13 18 20 16 14 13 12 10 13 15 14 14 12 10 10 14 11 9
15 15 13 10 9 9 10 13 13 14 16 18 20 20 20 21 20 16 17 17 15 16 14 12 13 12 12 12 12 11 10 9
13 10 9 10 12 11 11 13 16 19 22 22 23 21 21 21 20 20 21 17 15 14 14 16 13 12 12 12 12 12 12 13
9 9 10 13 16 19 23 26 28 23 17 19 19 23 27 24 21 21 17 16 16 13 13 15 15 14 11 13 14 14 13 13